Location: Medlow Airstrip Trail, Medlow Bath NSW 2780, Australia
(33.6682°S, 150.3233°E)
Time: 10:21:03
(UTC+10:00)

Vanguard 2 Rocket - Visible Passes

Search period start: 21 September 2019 00:00
Search period end: 01 October 2019 00:00
Orbit: 554 x 3327 km, 32.9° (Epoch: 20 September)

Date Brightness Start Highest point End Pass type
(mag) Time Alt. Az. Time Alt. Az. Time Alt. Az.
21 Sep 10.0 02:49:37 14° NNE 02:56:27 22° NE 03:07:47 10° E visible
21 Sep 9.8 04:57:15 10° NW 05:10:36 59° NNE 05:30:02 10° ESE visible
22 Sep 10.3 01:53:45 10° NE 01:56:51 11° NE 02:00:23 10° ENE visible
22 Sep 9.7 03:59:35 15° NNW 04:09:41 46° NE 04:26:59 10° ESE visible
23 Sep 9.5 03:03:38 22° N 03:09:26 32° NE 03:23:24 10° E visible
23 Sep 9.5 05:10:57 10° WNW 05:24:18 70° NNE 05:44:17 10° ESE visible
24 Sep 9.8 02:07:39 19° NE 02:09:46 20° NE 02:18:56 10° E visible
24 Sep 9.4 04:13:28 18° NW 04:23:07 58° NNE 04:41:23 10° ESE visible
25 Sep 9.1 03:17:26 30° N 03:22:37 44° NE 03:38:12 10° ESE visible
26 Sep 9.3 02:21:20 29° NNE 02:22:46 29° NE 02:34:38 10° E visible
26 Sep 9.2 04:27:09 18° NW 04:36:52 70° NNE 04:55:39 10° E visible
27 Sep 10.0 01:25:12 16° ENE 01:25:12 16° ENE 01:30:15 10° E visible
27 Sep 8.8 03:31:01 35° NNW 03:36:06 56° NNE 03:52:37 10° ESE visible
28 Sep 8.8 02:34:50 40° NNE 02:36:01 41° NE 02:49:28 10° E visible
28 Sep 9.1 04:40:39 15° WNW 04:50:53 80° NNE 05:09:54 10° E visible
29 Sep 9.5 01:38:38 25° ENE 01:38:38 25° ENE 01:46:08 10° E visible
29 Sep 8.6 03:44:26 35° NW 03:49:54 69° NNE 04:06:53 10° E visible
30 Sep 8.4 02:48:13 52° N 02:49:34 54° NNE 03:03:54 10° ESE visible
30 Sep 9.1 04:54:01 12° W 05:05:04 86° N 05:24:10 10° E visible
